MUOS-2

Last updated on Thu Mar 05 2026 00:02:57 GMT+0000 (Coordinated Universal Time)

1 39206U 13036A 26063.11986752 -.00000022 00000+0 00000+0 0 9992 2 39206 4.7853 45.3224 0053137 184.1359 147.5681 1.00273466 46134
UTC large
Height (km)
Speed (km/s)
/
Latitude / Longitude
Inclination (degrees)
Orbital Period (minutes)
Azimuth
Elevation
Range (km)
Doppler Factor

Next 0 passes for location: London (51.5072 / 0.1276)

Sorry there are no passes over London.